SCP
1 1 2 3 3 1 0 0 0 0 0 0 0 1 1 1 1 1 1 2 2 2 2 2 2 2 2 1 1 1 1 1 1 1 0 0 1 1 1 1 1 1 1 1 1 1 1 1 1
1 1 2 2 2 1 0 0 0 0 0 0 1 1 1 1 1 1 2 2 2 2 2 2 2 2 2 1 1 1 1 1 0 0 1 1 0 0 1 1 1 1 1 1 1 1 1 1 1
0 1 1 1 1 0 0 0 0 0 0 0 1 1 1 1 1 1 2 2 2 2 3 3 2 2 2 1 1 1 1 1 0 0 1 1 1 0 1 1 1 1 1 0 1 1 1 1 1
0 0 1 0 0 0 0 0 0 0 0 0 1 1 1 1 1 1 2 2 2 3 3 2 2 2 2 1 1 1 1 1 1 0 0 1 1 1 1 1 1 1 0 0 1 1 1 1 1
0 0 0 0 0 0 0 0 0 1 1 1 1 1 1 1 1 1 1 1 2 2 2 2 2 2 2 1 1 1 1 1 1 0 0 1 1 1 1 0 0 1 1 1 1 1 1 1 1
0 0 0 0 0 0 0 0 0 0 1 1 1 1 2 2 1 1 1 1 2 2 2 2 2 1 1 1 1 1 1 1 1 1 1 1 1 1 1 1 1 1 1 1 1 1 1 1 1
0 0 0 0 0 0 0 0 0 0 0 1 1 1 2 2 2 1 1 1 2 2 2 2 1 1 1 1 1 1 1 1 1 1 1 1 1 1 1 1 1 1 1 1 1 1 1 1 1
0 0 0 0 0 0 0 0 0 0 0 0 1 1 2 2 2 2 2 2 2 2 3 2 1 1 1 1 1 1 1 1 1 1 1 1 1 1 1 1 2 2 2 2 2 2 1 1 1
0 0 0 0 0 0 0 0 0 0 1 1 1 2 3 3 2 2 2 2 2 2 3 2 2 1 1 1 1 1 1 1 1 2 2 2 2 1 1 2 2 3 3 3 3 2 2 2 2
0 0 0 0 0 0 0 0 0 0 1 2 2 3 3 3 2 2 2 2 2 2 2 2 2 1 1 1 1 2 2 2 2 2 2 2 2 2 2 2 3 3 4 4 3 3 2 2 2
0 0 0 0 0 0 0 0 0 1 1 2 2 3 3 3 2 2 2 2 2 2 2 2 2 2 1 1 2 2 2 2 2 2 2 2 2 2 2 2 2 3 3 3 3 3 2 2 1
0 0 0 0 0 0 0 0 0 1 1 2 2 3 3 3 2 2 2 2 2 2 2 2 2 2 2 2 2 2 2 2 2 2 2 2 2 2 2 2 2 2 3 3 3 3 2 2 1
0 0 0 0 0 0 0 0 1 1 1 2 2 3 4 3 2 2 2 2 2 3 3 2 3 4 4 3 3 2 2 2 2 2 2 2 2 2 2 2 2 2 3 3 4 3 3 2 2
0 0 0 0 0 0 0 0 1 1 1 2 2 3 3 2 2 2 3 3 3 4 3 3 5 7 7 6 5 4 2 2 3 3 3 3 2 2 3 3 3 3 3 4 4 4 3 3 3
0 0 0 0 0 0 0 1 1 1 1 2 2 3 3 2 2 2 3 3 4 4 4 4 5 9 10 9 8 6 4 3 3 4 5 5 4 4 4 4 4 3 3 4 4 4 4 4 3
0 0 0 0 0 0 0 1 1 1 1 2 2 3 3 3 2 2 3 4 5 5 6 5 5 9 11 11 10 9 7 6 5 5 6 7 6 5 6 6 4 3 4 4 4 4 4 3 3
0 0 0 0 0 0 0 1 1 2 2 2 3 4 4 3 3 3 3 4 5 7 8 7 7 9 11 11 10 9 9 8 8 8 9 9 8 6 6 5 4 3 4 4 4 3 3 2 2
0 0 0 0 0 0 0 1 2 3 3 3 4 4 4 3 3 3 3 4 5 7 8 8 8 10 10 9 8 7 7 8 9 10 10 10 9 7 6 5 4 4 4 4 3 2 2 2 2
0 0 0 0 0 0 1 1 2 3 4 4 4 4 4 4 4 4 4 4 5 6 7 7 7 8 7 6 6 5 5 7 8 9 9 8 7 6 6 5 4 4 3 3 2 2 2 2 3
0 0 0 0 0 0 1 1 2 3 4 3 3 4 5 5 6 5 5 5 5 6 7 6 6 5 5 5 5 4 5 6 6 7 6 5 5 5 4 4 4 4 3 3 2 2 3 3 3
0 0 0 0 0 0 1 1 2 4 4 3 3 4 5 8 9 8 7 6 6 7 8 7 6 5 5 5 4 4 5 5 5 6 6 5 4 4 3 3 4 3 3 3 3 3 3 3 3
0 0 0 0 0 0 0 1 3 5 5 4 4 4 6 9 12 10 7 6 6 7 9 9 8 7 7 6 5 5 5 5 5 6 7 6 5 4 4 3 3 4 4 4 4 4 4 4 3
0 0 0 0 0 0 0 1 3 5 5 5 5 4 6 10 12 10 8 6 6 7 9 11 11 10 8 7 7 6 5 5 5 7 8 7 5 5 5 5 5 5 5 5 5 5 5 4 4
0 0 0 0 0 0 0 1 3 4 4 4 4 4 6 9 11 10 9 8 7 8 10 12 13 11 9 9 8 7 7 7 7 9 9 7 6 6 6 7 7 7 6 6 5 6 7 6 5
0 0 0 0 0 0 0 1 3 5 5 4 4 4 5 8 11 12 11 10 9 9 10 12 12 11 11 10 10 9 9 9 10 11 10 7 6 6 7 7 8 8 7 6 6 8 9 8 6
0 0 0 0 0 0 1 2 3 4 4 4 3 3 5 8 12 13 11 10 11 11 11 11 12 12 12 12 12 11 10 10 11 12 10 8 6 5 6 7 7 7 6 6 6 8 9 8 7
0 0 0 0 0 1 1 2 3 4 4 4 4 4 6 10 13 13 11 10 11 12 12 12 13 14 13 12 12 11 11 10 11 12 10 8 7 6 6 7 7 6 6 6 7 7 7 7 6
0 0 0 0 1 1 1 2 3 4 4 4 4 5 8 11 13 12 10 10 11 12 12 12 13 14 13 12 11 10 10 11 11 11 9 8 7 6 7 7 7 6 6 6 7 6 6 6 6
0 0 0 1 1 1 1 2 3 3 3 3 3 5 8 10 10 10 9 10 10 10 10 10 11 12 11 10 9 9 10 11 12 11 9 8 7 6 6 7 7 6 6 6 6 6 6 6 6
0 0 0 1 1 1 1 2 3 3 3 3 4 6 8 9 9 9 8 9 9 8 7 8 9 10 9 9 9 9 10 11 11 11 10 10 8 6 5 6 6 5 5 5 5 5 5 6 6
Wind_Speed
8 10 10 7 6 4 3 7 10 11 11 10 10 10 14 15 11 10 9 13 17 17 15 14 12 11 10 9 9 9 9 8 8 8 7 7 7 7 9 9 10 10 10 9 9 8 8 9 8
9 12 10 7 5 2 4 8 10 10 9 7 9 12 13 14 13 12 11 12 16 16 14 13 12 11 10 9 9 8 8 8 8 7 7 6 6 7 8 9 9 9 9 9 8 7 7 7 7
12 15 8 6 4 2 5 8 8 8 7 7 10 12 11 10 10 10 10 12 15 16 15 14 12 11 10 9 9 8 8 8 7 7 6 6 6 7 8 9 9 8 8 8 7 6 6 6 6
9 9 7 6 3 3 6 7 6 7 6 7 9 11 11 10 10 12 11 12 16 17 16 14 12 11 10 9 8 8 8 7 7 6 6 6 6 7 8 8 8 8 7 7 7 7 6 5 5
10 8 9 5 2 2 5 6 6 6 5 8 10 12 12 11 12 11 10 12 15 16 15 14 13 11 10 9 8 7 7 7 6 6 6 6 7 7 8 7 7 7 7 7 7 6 6 5 4
8 7 7 6 2 0 4 5 4 5 7 7 10 12 10 12 12 10 8 10 13 15 15 13 13 12 10 9 8 7 7 6 6 5 6 6 7 7 7 7 7 6 6 6 6 6 6 5 4
10 10 9 7 3 0 3 5 4 4 5 5 6 10 10 11 10 10 9 10 12 15 14 12 12 11 11 10 8 7 7 6 6 5 6 6 7 7 7 7 7 6 6 6 6 6 6 5 4
10 10 12 7 5 2 3 4 3 4 4 5 4 7 11 12 11 10 10 10 11 13 13 11 12 11 10 9 9 8 7 7 6 6 6 6 6 6 7 7 7 7 6 6 5 5 5 5 4
13 10 10 8 5 2 3 3 2 3 4 4 6 8 14 15 13 11 10 9 9 9 11 10 10 10 10 9 10 9 8 7 6 6 6 6 4 5 6 6 8 8 7 7 7 6 5 5 5
10 9 9 8 6 2 2 1 1 2 5 5 8 12 15 14 12 11 11 11 10 9 10 8 9 8 8 7 8 7 7 6 5 4 5 4 3 3 5 7 8 8 8 8 7 7 6 5 3
12 12 10 7 4 3 1 1 2 1 1 4 10 13 14 13 11 10 10 11 11 9 8 8 7 7 6 5 5 3 3 5 4 4 4 2 2 2 3 3 4 5 6 5 6 6 4 4 3
14 12 9 7 5 4 3 3 3 1 1 4 9 13 14 12 11 10 10 10 11 10 9 8 8 6 5 4 3 3 3 3 3 3 2 2 1 1 1 1 2 2 2 2 3 2 3 2 2
13 12 9 8 7 6 5 5 4 2 2 6 10 12 12 12 10 9 9 9 10 9 8 8 7 6 4 3 1 3 2 3 3 3 2 1 2 1 1 1 0 0 0 1 1 1 1 1 1
12 12 10 8 8 7 8 6 7 4 5 7 10 11 11 11 11 9 9 8 9 9 9 7 7 6 5 3 1 2 2 2 3 3 3 2 2 2 1 1 1 0 1 1 0 1 1 0 0
12 12 12 11 12 10 8 8 7 5 6 8 9 11 11 10 10 10 9 8 9 8 7 7 7 7 5 4 2 2 2 3 3 3 3 3 2 2 1 1 1 0 1 1 0 0 0 1 0
13 13 14 14 13 10 8 10 8 7 7 8 9 10 10 10 10 9 10 8 8 8 7 6 7 8 5 3 2 1 2 2 3 3 3 3 2 2 1 1 1 1 1 1 1 1 0 0 0
14 15 15 13 11 9 10 10 8 8 8 8 8 9 10 10 10 10 11 10 9 8 8 6 6 7 7 5 3 2 2 2 2 3 2 2 2 2 1 1 0 1 1 0 0 2 0 0 0
12 13 12 11 9 9 10 9 8 9 9 8 8 9 10 10 10 11 10 11 10 9 8 7 6 5 6 5 3 2 2 2 2 3 2 3 2 2 1 2 1 0 1 1 1 1 0 1 1
15 13 12 10 8 9 9 8 8 8 9 9 9 10 10 8 9 11 11 11 11 10 9 8 7 6 4 4 4 3 3 2 3 3 3 3 2 2 1 1 1 0 1 1 1 0 1 1 1
15 14 14 11 9 7 8 9 9 9 9 8 8 8 9 9 8 10 11 11 11 10 9 8 7 7 6 4 3 3 3 2 3 2 3 3 2 1 2 1 0 1 1 0 0 0 1 1 1
14 14 14 12 9 8 10 12 11 9 9 8 6 6 9 11 10 9 10 10 11 11 10 9 8 8 7 6 4 3 2 2 3 3 3 3 3 2 1 1 0 0 1 1 1 1 1 1 1
13 13 14 13 12 10 11 11 9 9 10 9 8 7 8 9 11 9 9 10 10 10 10 8 8 8 6 6 5 5 4 3 3 3 3 3 3 3 3 2 1 0 0 0 1 0 1 2 2
12 12 12 13 13 13 12 12 7 8 9 8 7 5 6 8 9 9 8 9 9 9 10 9 8 7 7 6 5 5 4 3 3 3 4 3 3 3 3 3 1 1 0 0 1 1 1 1 2
12 13 13 13 12 15 13 13 7 5 7 7 8 7 5 7 7 7 7 7 7 8 9 9 8 7 7 6 6 5 4 3 4 4 4 3 2 2 2 3 2 1 1 1 1 1 1 1 2
11 10 8 10 9 12 10 10 5 2 3 5 6 7 6 7 7 7 7 6 7 8 8 8 8 7 7 6 5 4 4 4 4 4 3 3 2 2 2 2 2 1 1 1 1 1 1 1 2
10 12 11 10 9 9 9 8 3 5 5 6 6 6 6 7 7 6 6 6 7 7 7 8 8 7 7 6 4 4 4 3 3 3 3 2 2 2 3 2 2 1 1 1 1 1 1 1 1
12 12 13 13 13 11 7 4 2 4 6 7 7 6 6 5 6 5 4 5 5 6 6 7 8 7 6 6 5 4 3 3 3 3 2 2 2 3 3 2 2 2 1 1 1 1 0 0 1
13 11 8 10 10 11 8 5 2 4 5 6 6 6 7 6 6 6 4 4 5 6 6 6 6 6 6 5 4 4 4 3 2 2 2 2 2 2 3 2 2 2 2 1 1 1 1 1 1
12 12 10 9 10 10 9 3 0 3 4 4 5 5 5 6 6 6 6 4 3 5 6 5 6 6 5 5 4 4 4 3 3 2 2 2 2 2 2 2 2 2 1 1 1 1 1 1 0
11 11 10 9 10 10 9 3 2 4 3 2 3 5 6 5 5 6 6 6 4 5 6 5 5 6 5 4 4 4 4 3 3 3 2 2 2 2 2 2 2 3 2 2 1 1 1 1 0
Wind_Direction
224 230 226 244 249 254 14 50 55 56 58 56 48 51 59 53 56 85 105 105 108 112 117 115 109 105 100 97 95 94 92 92 92 89 87 90 95 103 104 103 102 102 101 100 98 95 89 88 89
251 247 238 246 261 287 52 58 61 63 60 64 64 64 71 71 78 97 104 108 111 114 119 114 113 108 104 100 99 97 96 95 95 93 94 97 98 104 109 111 110 109 107 105 105 104 97 95 95
260 259 262 247 264 318 72 72 73 78 75 71 72 63 60 75 86 100 116 122 113 112 112 116 119 114 110 106 103 101 100 99 98 98 99 104 107 109 114 113 113 115 115 114 115 114 110 108 106
259 247 238 254 302 359 60 79 83 82 78 76 78 79 73 70 92 113 133 125 116 116 117 122 125 121 117 114 109 105 105 104 101 100 102 106 112 111 116 114 116 120 123 124 125 122 119 114 109
245 260 264 269 291 15 71 73 72 79 74 73 81 92 91 89 101 120 134 125 121 118 120 128 131 128 125 121 116 113 112 110 108 109 113 116 119 121 122 119 120 120 123 128 130 126 125 125 122
261 262 272 287 294 326 88 78 76 88 85 83 100 104 106 114 119 131 131 126 119 120 122 129 135 135 133 128 123 120 120 120 117 118 122 126 126 127 126 127 131 126 124 132 139 137 136 142 143
260 279 276 278 273 310 77 78 60 71 77 82 93 105 119 123 127 135 137 125 121 123 128 138 141 142 142 138 134 132 132 130 127 129 132 137 140 143 140 137 140 141 140 141 148 155 158 164 169
266 281 284 274 251 133 94 91 78 78 80 83 81 116 133 133 143 142 138 130 125 128 132 143 149 150 153 149 148 150 148 145 145 150 152 153 155 157 156 150 151 155 158 162 165 169 175 182 194
262 270 282 289 289 109 109 109 106 127 102 73 64 91 128 140 149 147 139 132 127 131 135 150 150 155 158 150 150 163 164 163 161 167 173 176 185 168 165 159 163 168 172 177 181 187 192 202 214
247 257 268 283 309 13 88 81 179 156 125 113 100 107 129 144 152 156 151 143 141 148 143 146 144 150 152 147 149 169 168 159 174 160 170 191 188 158 155 160 174 183 185 181 190 198 209 218 225
248 256 268 280 318 325 309 238 254 224 133 130 135 136 144 149 158 163 156 149 149 151 147 144 141 144 144 139 147 158 153 151 164 145 157 156 152 154 151 162 172 190 192 194 187 194 205 206 209
253 258 272 286 303 288 280 262 258 276 129 136 139 145 150 160 168 165 159 150 147 152 151 146 142 133 129 123 136 156 144 136 136 143 139 140 140 116 111 129 163 181 184 185 174 182 189 205 212
254 258 254 262 260 263 258 254 246 217 133 132 145 154 159 167 172 164 154 148 148 149 146 143 134 119 108 99 150 127 116 123 130 129 127 131 124 103 94 68 75 53 157 165 147 167 176 193 198
267 270 266 259 257 249 249 244 238 210 172 165 159 161 168 170 172 159 154 154 148 145 143 143 134 128 129 137 129 112 126 125 117 105 115 113 104 99 98 103 87 21 358 9 117 168 182 185 37
265 266 265 253 247 241 244 252 243 225 185 179 174 169 169 170 168 162 159 156 150 145 139 140 143 136 141 141 159 136 126 124 110 112 116 115 111 127 140 149 144 182 210 160 135 126 173 183 184
257 254 253 246 234 229 231 248 238 210 198 194 179 168 165 167 172 164 157 153 150 147 144 156 154 143 140 139 145 120 116 117 117 116 108 113 119 125 142 141 126 217 178 149 154 116 58 31 118
244 244 248 244 219 219 225 245 234 196 200 203 179 170 170 170 176 164 158 155 150 147 149 156 147 146 150 152 148 133 112 103 114 112 111 115 112 99 99 111 116 237 137 124 119 107 150 229 239
246 245 244 245 221 218 228 238 234 203 203 197 186 175 177 179 178 164 159 154 149 145 148 150 151 148 149 151 151 150 141 134 127 117 117 123 124 109 120 129 91 349 90 78 40 51 24 256 255
264 266 267 260 241 225 235 237 235 212 199 203 198 180 175 176 170 159 158 157 155 150 153 155 160 157 158 160 169 164 167 163 148 137 130 128 124 126 112 72 120 90 108 124 120 73 276 269 263
263 263 263 259 247 237 242 249 237 222 210 204 200 180 170 165 164 161 160 162 159 159 161 161 163 164 169 163 170 170 165 169 147 130 140 146 148 142 137 117 92 100 102 125 264 241 233 256 228
254 259 264 271 271 253 248 247 241 224 209 198 203 189 174 168 162 161 162 163 165 168 170 172 168 167 173 167 171 171 152 164 147 151 152 152 146 139 119 131 120 259 182 178 236 246 264 266 275
255 255 264 267 264 257 249 255 236 211 201 193 196 193 179 162 156 163 166 167 169 169 169 166 163 165 169 172 176 179 179 178 172 159 151 155 166 161 158 145 156 250 256 174 249 204 285 276 275
259 268 272 271 265 266 253 256 236 203 201 189 180 182 167 154 154 159 170 171 171 168 167 162 157 165 169 180 182 190 186 173 156 148 147 161 165 168 164 154 167 168 138 182 308 322 301 288 280
267 270 267 262 259 256 252 255 244 226 193 184 167 168 162 151 152 155 156 154 161 163 164 159 158 164 170 180 184 198 190 172 160 156 160 175 167 165 163 147 148 155 156 191 233 259 275 293 296
250 259 258 253 244 253 261 249 225 158 130 160 154 148 149 141 139 141 145 156 159 158 155 155 158 164 171 179 183 185 188 180 170 168 176 185 168 152 153 145 147 166 165 173 206 237 265 267 291
248 250 252 260 260 263 260 253 203 136 124 133 133 125 135 138 136 136 143 153 155 154 152 154 157 162 168 172 172 170 182 188 178 180 177 183 164 147 143 141 157 173 179 201 216 237 221 212 269
254 254 263 264 266 270 258 243 215 141 138 136 135 130 129 122 119 120 134 137 138 146 148 153 154 156 164 165 161 157 165 182 168 163 179 168 151 145 139 150 161 167 168 200 222 245 242 180 232
250 261 268 262 267 271 265 249 216 184 164 151 147 141 136 136 132 128 133 131 129 135 136 139 138 147 152 151 164 166 169 174 157 166 160 136 125 121 151 164 165 173 175 195 225 240 193 192 229
246 246 257 266 265 270 271 274 28 138 137 147 144 132 123 132 131 135 133 120 134 136 133 130 134 137 148 156 156 150 159 159 167 162 146 140 138 151 166 168 173 188 182 190 219 251 212 215 259
259 254 255 262 269 274 276 267 11 80 97 121 126 120 122 122 124 135 135 142 154 142 139 133 134 146 151 148 146 149 151 156 168 158 149 147 155 173 186 185 191 201 187 189 208 246 253 195 199